Погода в Залегощи

Россия / Орловская область     52°54′06″N   36°53′30″E
темп.,
°C
ветер,
м/с
пор.,
м/с
влажн.,
%
обл.,
%
осадки,
мм/ч
давл.,
гПа
погр.,
м
20 апреля, вт
вт2000:00+6в61094100 0.1 1017715
03:00+6в5994100 0.5 1016530
06:00+6в51189100 0.3 1016438
09:00+7в71187100 0.3 1015571
12:00+7в7987100 0.1 1014734
15:00+6всв7987100 0.1 1012614
18:00+5всв61192100 0.0 1010585
21:00+4всв61094100 0.0 1008576
21 апреля, ср
ср2100:00+3св5993100 0.9 1005501
03:00+2с3599100 1.7 1004252
06:00+2сз3599100 0.4 1004257
09:00+2зсз3698100 0.4 1006404
12:00+4з5789100 0.1 1008659
15:00+6зюз5778100 0.1 1010892
18:00+7юз2382100 0.0 1011150
21:00+5юз3692100 0.2 1013298
22 апреля, чт
чт2200:00+5з369294 0.1 1014331
03:00+4юз3694100 0.1 1016252
06:00+4ююз489169 0.0 1016298
09:00+6ю468296 0.0 1018284
12:00+11ююз68655 0.0 1018951
15:00+12ююз686432 0.6 10171213
18:00+12ююз587226 0.3 10171029
21:00+8ю48909 0.4 1018163
23 апреля, пт
пт2300:00+8ю4119287 0.8 1018246
03:00+7ю41188100 0.9 1018199
06:00+8ю51383100 0.0 1018314
09:00+12ю713676 0.1 1018732
12:00+16ю8104828 0.0 10172138
15:00+16ю71051100 0.0 10152134
18:00+14ю6116070 0.4 1014908
21:00+10ююз497864 1.4 1014224
24 апреля, сб
сб2400:00+8ююв378910 0.0 1013150
03:00+8ю81584100 0.1 1011707
06:00+5зюз3491100 0.1 1011462
09:00+3зсз3797100 4.3 1012460
12:00+5з4781100 2.4 1012898
15:00+9з8104995 2.8 10102202
18:00+7з710608 0.3 10111351
21:00+4з5117419 0.3 1013395